Wetterdaten: Woche 23.10.06 - 29.10.06 (KW43)
Datum Zeit Temperatur Luftfeuchte Luftdruck Niederschlag Windrichtung Wind
23.10.2006 00:00 9,8 C 97 % 1008 hPa 0,0 l/m N 0,0 km/h (0 Bft)
23.10.2006 01:00 9,3 C 99 % 1008 hPa 0,0 l/m N 0,0 km/h (0 Bft)
23.10.2006 02:00 9,7 C 100 % 1008 hPa 0,0 l/m N 0,0 km/h (0 Bft)
23.10.2006 03:00 10,1 C 100 % 1007 hPa 0,0 l/m N 0,0 km/h (0 Bft)
23.10.2006 04:00 11,1 C 98 % 1007 hPa 0,0 l/m S-SW 2,9 km/h (1 Bft)
23.10.2006 05:00 11,6 C 96 % 1007 hPa 0,0 l/m N 0,2 km/h (0 Bft)
23.10.2006 06:00 11,3 C 99 % 1007 hPa 0,0 l/m O-SO 0,9 km/h (0 Bft)
23.10.2006 07:00 11,1 C 99 % 1007 hPa 0,0 l/m SO 1,1 km/h (1 Bft)
23.10.2006 08:00 12,0 C 96 % 1008 hPa 0,0 l/m S-SW 1,9 km/h (1 Bft)
23.10.2006 09:00 12,4 C 93 % 1008 hPa 0,0 l/m O 0,9 km/h (0 Bft)
23.10.2006 10:00 13,0 C 96 % 1008 hPa 0,0 l/m O 2,7 km/h (1 Bft)
23.10.2006 11:00 13,8 C 95 % 1008 hPa 0,0 l/m NO 1,1 km/h (0 Bft)
23.10.2006 12:00 15,0 C 90 % 1008 hPa 0,0 l/m O-SO 4,5 km/h (1 Bft)
23.10.2006 13:00 15,6 C 83 % 1007 hPa 0,0 l/m O-SO 6,4 km/h (2 Bft)
23.10.2006 14:00 15,7 C 85 % 1007 hPa 0,0 l/m O-SO 2,2 km/h (1 Bft)
23.10.2006 15:00 15,7 C 85 % 1006 hPa 0,0 l/m O 1,9 km/h (1 Bft)
23.10.2006 16:00 15,4 C 87 % 1006 hPa 0,0 l/m N-NO 0,8 km/h (0 Bft)
23.10.2006 17:00 15,2 C 93 % 1005 hPa 0,0 l/m W-SW 0,3 km/h (0 Bft)
23.10.2006 18:00 14,5 C 95 % 1004 hPa 0,0 l/m W-NW 0,7 km/h (0 Bft)
23.10.2006 19:00 13,9 C 98 % 1004 hPa 0,0 l/m W-SW 4,4 km/h (1 Bft)
23.10.2006 20:00 13,6 C 99 % 1004 hPa 0,0 l/m W-SW 6,2 km/h (2 Bft)
23.10.2006 21:00 13,3 C 100 % 1004 hPa 0,0 l/m W 7,3 km/h (2 Bft)
23.10.2006 22:00 13,1 C 98 % 1004 hPa 0,0 l/m W 4,1 km/h (1 Bft)
23.10.2006 23:00 12,6 C 98 % 1003 hPa 0,0 l/m N 0,0 km/h (0 Bft)
24.10.2006 00:00 12,0 C 99 % 1004 hPa 0,0 l/m W 0,8 km/h (0 Bft)
24.10.2006 01:00 12,0 C 100 % 1004 hPa 1,0 l/m SO 3,8 km/h (1 Bft)
24.10.2006 02:00 12,2 C 100 % 1004 hPa 0,0 l/m SO 8,8 km/h (2 Bft)
24.10.2006 03:00 12,5 C 100 % 1005 hPa 1,0 l/m S-SO 6,8 km/h (2 Bft)
24.10.2006 04:00 13,0 C 96 % 1004 hPa 0,0 l/m S-SO 12,9 km/h (3 Bft)
24.10.2006 05:00 13,3 C 88 % 1005 hPa 0,0 l/m S 9,1 km/h (2 Bft)
24.10.2006 06:00 12,6 C 93 % 1006 hPa 0,0 l/m SO 3,1 km/h (1 Bft)
24.10.2006 07:00 11,9 C 96 % 1006 hPa 0,0 l/m SO 2,4 km/h (1 Bft)
24.10.2006 08:00 12,2 C 96 % 1007 hPa 1,0 l/m S 6,4 km/h (2 Bft)
24.10.2006 09:00 12,7 C 92 % 1007 hPa 0,0 l/m S 10,2 km/h (2 Bft)
24.10.2006 10:00 13,8 C 83 % 1007 hPa 0,0 l/m SO 10,9 km/h (2 Bft)
24.10.2006 11:00 14,9 C 79 % 1007 hPa 0,0 l/m S-SO 11,3 km/h (2 Bft)
24.10.2006 12:00 16,0 C 70 % 1007 hPa 0,0 l/m S-SO 15,9 km/h (3 Bft)
24.10.2006 13:00 17,0 C 52 % 1008 hPa 1,0 l/m S-SW 20,6 km/h (4 Bft)
24.10.2006 14:00 17,3 C 45 % 1008 hPa 0,0 l/m S 23,4 km/h (4 Bft)
24.10.2006 15:00 17,3 C 43 % 1008 hPa 0,0 l/m S 19,3 km/h (3 Bft)
24.10.2006 16:00 16,4 C 44 % 1009 hPa 0,0 l/m S 20,5 km/h (4 Bft)
24.10.2006 17:00 15,6 C 44 % 1010 hPa 0,0 l/m S 17,7 km/h (3 Bft)
24.10.2006 18:00 14,7 C 46 % 1011 hPa 0,0 l/m S 15,9 km/h (3 Bft)
24.10.2006 19:00 13,9 C 43 % 1012 hPa 0,0 l/m S 11,7 km/h (2 Bft)
24.10.2006 20:00 13,4 C 48 % 1013 hPa 0,0 l/m S 12,3 km/h (3 Bft)
24.10.2006 21:00 12,3 C 54 % 1014 hPa 0,0 l/m SO 7,4 km/h (2 Bft)
24.10.2006 22:00 10,4 C 64 % 1014 hPa 0,0 l/m S 4,5 km/h (1 Bft)
24.10.2006 23:00 9,9 C 69 % 1015 hPa 0,0 l/m SO 7,8 km/h (2 Bft)
25.10.2006 00:00 10,1 C 69 % 1015 hPa 0,0 l/m SO 4,7 km/h (1 Bft)
25.10.2006 01:00 9,8 C 72 % 1015 hPa 0,0 l/m S-SO 7,2 km/h (2 Bft)
25.10.2006 02:00 8,2 C 77 % 1015 hPa 0,0 l/m O-NO 0,2 km/h (0 Bft)
25.10.2006 03:00 6,5 C 86 % 1015 hPa 0,0 l/m N 0,0 km/h (0 Bft)
25.10.2006 04:00 5,3 C 92 % 1016 hPa 0,0 l/m N 0,0 km/h (0 Bft)
25.10.2006 05:00 4,9 C 97 % 1015 hPa 0,0 l/m N 0,0 km/h (0 Bft)
25.10.2006 06:00 4,1 C 98 % 1015 hPa 0,0 l/m N 0,0 km/h (0 Bft)
25.10.2006 07:00 4,1 C 100 % 1016 hPa 0,0 l/m N 0,0 km/h (0 Bft)
25.10.2006 08:00 5,2 C 100 % 1016 hPa 0,0 l/m W 0,1 km/h (0 Bft)
25.10.2006 09:00 6,6 C 100 % 1015 hPa 0,0 l/m W-SW 0,6 km/h (0 Bft)
25.10.2006 10:00 8,3 C 94 % 1016 hPa 0,0 l/m W-SW 5,8 km/h (2 Bft)
25.10.2006 11:00 10,1 C 83 % 1016 hPa 0,0 l/m W 6,1 km/h (2 Bft)
25.10.2006 12:00 12,6 C 70 % 1015 hPa 0,0 l/m NW 5,7 km/h (1 Bft)
25.10.2006 13:00 14,4 C 61 % 1015 hPa 0,0 l/m N-NW 7,1 km/h (2 Bft)
25.10.2006 14:00 15,4 C 55 % 1014 hPa 0,0 l/m NW 7,2 km/h (2 Bft)
25.10.2006 15:00 15,6 C 55 % 1014 hPa 0,0 l/m NW 9,3 km/h (2 Bft)
25.10.2006 16:00 15,1 C 58 % 1014 hPa 0,0 l/m NW 7,0 km/h (2 Bft)
25.10.2006 17:00 14,7 C 61 % 1014 hPa 0,0 l/m N 5,8 km/h (2 Bft)
25.10.2006 18:00 12,8 C 71 % 1014 hPa 0,0 l/m W 4,4 km/h (1 Bft)
25.10.2006 19:00 11,1 C 82 % 1014 hPa 0,0 l/m W-SW 5,2 km/h (1 Bft)
25.10.2006 20:00 10,7 C 85 % 1014 hPa 0,0 l/m W-SW 5,6 km/h (1 Bft)
25.10.2006 21:00 10,3 C 86 % 1014 hPa 0,0 l/m W-SW 4,0 km/h (1 Bft)
25.10.2006 22:00 9,5 C 89 % 1014 hPa 0,0 l/m W 3,4 km/h (1 Bft)
25.10.2006 23:00 8,8 C 93 % 1014 hPa 0,0 l/m W 1,1 km/h (1 Bft)
26.10.2006 00:00 8,4 C 97 % 1014 hPa 0,0 l/m W 0,6 km/h (0 Bft)
26.10.2006 01:00 8,3 C 98 % 1014 hPa 0,0 l/m N 0,0 km/h (0 Bft)
26.10.2006 02:00 8,0 C 99 % 1015 hPa 0,0 l/m N 0,0 km/h (0 Bft)
26.10.2006 03:00 7,5 C 99 % 1015 hPa 0,0 l/m N 0,0 km/h (0 Bft)
26.10.2006 04:00 6,6 C 100 % 1015 hPa 0,0 l/m N 0,0 km/h (0 Bft)
26.10.2006 05:00 6,1 C 100 % 1015 hPa 0,0 l/m N 0,0 km/h (0 Bft)
26.10.2006 06:00 6,0 C 100 % 1015 hPa 0,0 l/m W-SW 1,0 km/h (0 Bft)
26.10.2006 07:00 6,0 C 100 % 1015 hPa 0,0 l/m W 1,7 km/h (1 Bft)
26.10.2006 08:00 6,1 C 100 % 1015 hPa 0,0 l/m W 0,3 km/h (0 Bft)
26.10.2006 09:00 7,7 C 100 % 1016 hPa 0,0 l/m W 3,0 km/h (1 Bft)
26.10.2006 10:00 10,0 C 99 % 1016 hPa 0,0 l/m W 0,5 km/h (0 Bft)
26.10.2006 11:00 13,3 C 77 % 1016 hPa 0,0 l/m N 0,2 km/h (0 Bft)
26.10.2006 12:00 15,9 C 65 % 1016 hPa 0,0 l/m N-NO 1,6 km/h (1 Bft)
26.10.2006 13:00 19,1 C 53 % 1015 hPa 0,0 l/m NO 2,3 km/h (1 Bft)
26.10.2006 14:00 21,7 C 46 % 1015 hPa 0,0 l/m NO 2,4 km/h (1 Bft)
26.10.2006 15:00 22,3 C 46 % 1015 hPa 0,0 l/m O-SO 4,4 km/h (1 Bft)
26.10.2006 16:00 20,8 C 54 % 1015 hPa 0,0 l/m O-SO 5,0 km/h (1 Bft)
26.10.2006 17:00 19,1 C 65 % 1015 hPa 0,0 l/m SO 4,2 km/h (1 Bft)
26.10.2006 18:00 16,3 C 75 % 1015 hPa 0,0 l/m N 0,0 km/h (0 Bft)
26.10.2006 19:00 13,7 C 85 % 1016 hPa 0,0 l/m N 0,0 km/h (0 Bft)
26.10.2006 20:00 12,1 C 92 % 1016 hPa 0,0 l/m N 0,0 km/h (0 Bft)
26.10.2006 21:00 10,9 C 96 % 1017 hPa 0,0 l/m N 0,0 km/h (0 Bft)
26.10.2006 22:00 10,0 C 97 % 1017 hPa 0,0 l/m N 0,0 km/h (0 Bft)
26.10.2006 23:00 9,5 C 100 % 1018 hPa 0,0 l/m N 0,0 km/h (0 Bft)
27.10.2006 00:00 9,1 C 100 % 1019 hPa 0,0 l/m W-NW 0,5 km/h (0 Bft)
27.10.2006 01:00 8,5 C 100 % 1019 hPa 0,0 l/m N 0,6 km/h (0 Bft)
27.10.2006 02:00 8,0 C 100 % 1020 hPa 0,0 l/m N 0,0 km/h (0 Bft)
27.10.2006 03:00 7,7 C 100 % 1021 hPa 0,0 l/m N 0,0 km/h (0 Bft)
27.10.2006 04:00 7,9 C 100 % 1021 hPa 0,0 l/m N 0,0 km/h (0 Bft)
27.10.2006 05:00 7,6 C 100 % 1022 hPa 0,0 l/m N 0,0 km/h (0 Bft)
27.10.2006 06:00 7,4 C 100 % 1023 hPa 0,0 l/m N 0,0 km/h (0 Bft)
27.10.2006 07:00 7,6 C 100 % 1023 hPa 0,0 l/m N 0,1 km/h (0 Bft)
27.10.2006 08:00 8,9 C 100 % 1024 hPa 0,0 l/m SO 4,7 km/h (1 Bft)
27.10.2006 09:00 12,8 C 97 % 1024 hPa 0,0 l/m SO 8,4 km/h (2 Bft)
27.10.2006 10:00 14,3 C 87 % 1025 hPa 0,0 l/m SO 9,3 km/h (2 Bft)
27.10.2006 11:00 16,3 C 78 % 1025 hPa 0,0 l/m O-SO 8,3 km/h (2 Bft)
27.10.2006 12:00 17,1 C 75 % 1026 hPa 0,0 l/m SO 7,0 km/h (2 Bft)
27.10.2006 13:00 18,4 C 65 % 1026 hPa 0,0 l/m SO 8,6 km/h (2 Bft)
27.10.2006 14:00 18,7 C 65 % 1026 hPa 0,0 l/m S 8,4 km/h (2 Bft)
27.10.2006 15:00 18,8 C 66 % 1026 hPa 0,0 l/m S 8,8 km/h (2 Bft)
27.10.2006 16:00 17,7 C 73 % 1026 hPa 0,0 l/m S 7,5 km/h (2 Bft)
27.10.2006 17:00 16,6 C 80 % 1026 hPa 0,0 l/m S 7,6 km/h (2 Bft)
27.10.2006 18:00 16,2 C 83 % 1027 hPa 0,0 l/m S 7,0 km/h (2 Bft)
27.10.2006 19:00 15,8 C 83 % 1027 hPa 0,0 l/m S 6,4 km/h (2 Bft)
27.10.2006 20:00 15,2 C 85 % 1027 hPa 0,0 l/m S 4,3 km/h (1 Bft)
27.10.2006 21:00 13,9 C 88 % 1028 hPa 0,0 l/m N 0,0 km/h (0 Bft)
27.10.2006 22:00 12,3 C 95 % 1028 hPa 0,0 l/m N 0,0 km/h (0 Bft)
27.10.2006 23:00 11,2 C 97 % 1028 hPa 0,0 l/m N 0,0 km/h (0 Bft)
28.10.2006 00:00 10,1 C 98 % 1028 hPa 0,0 l/m N 0,0 km/h (0 Bft)
28.10.2006 01:00 9,6 C 100 % 1028 hPa 0,0 l/m N 0,0 km/h (0 Bft)
28.10.2006 02:00 9,1 C 100 % 1029 hPa 0,0 l/m N 0,0 km/h (0 Bft)
28.10.2006 03:00 8,7 C 100 % 1029 hPa 0,0 l/m N 0,0 km/h (0 Bft)
28.10.2006 04:00 8,5 C 100 % 1029 hPa 0,0 l/m N 0,0 km/h (0 Bft)
28.10.2006 05:00 8,7 C 100 % 1029 hPa 0,0 l/m N 0,0 km/h (0 Bft)
28.10.2006 06:00 9,1 C 100 % 1029 hPa 0,0 l/m N 0,0 km/h (0 Bft)
28.10.2006 07:00 9,7 C 100 % 1029 hPa 0,0 l/m NO 0,8 km/h (0 Bft)
28.10.2006 08:00 10,5 C 100 % 1029 hPa 0,0 l/m N 0,0 km/h (0 Bft)
28.10.2006 09:00 11,5 C 100 % 1029 hPa 0,0 l/m N 0,0 km/h (0 Bft)
28.10.2006 10:00 13,4 C 100 % 1029 hPa 0,0 l/m O 2,0 km/h (1 Bft)
28.10.2006 11:00 14,6 C 100 % 1029 hPa 0,0 l/m O-SO 5,1 km/h (1 Bft)
28.10.2006 12:00 15,9 C 95 % 1028 hPa 0,0 l/m O-SO 7,6 km/h (2 Bft)
28.10.2006 13:00 18,3 C 64 % 1028 hPa 0,0 l/m S 10,2 km/h (2 Bft)
28.10.2006 14:00 18,0 C 65 % 1027 hPa 0,0 l/m S 6,0 km/h (2 Bft)
28.10.2006 15:00 17,7 C 66 % 1027 hPa 0,0 l/m W-SW 7,3 km/h (2 Bft)
28.10.2006 16:00 17,2 C 69 % 1027 hPa 0,0 l/m W-SW 8,4 km/h (2 Bft)
28.10.2006 17:00 16,3 C 74 % 1027 hPa 0,0 l/m W-SW 6,4 km/h (2 Bft)
28.10.2006 18:00 15,6 C 76 % 1027 hPa 0,0 l/m SW 9,1 km/h (2 Bft)
28.10.2006 19:00 15,2 C 74 % 1028 hPa 0,0 l/m W-SW 7,2 km/h (2 Bft)
28.10.2006 20:00 14,9 C 71 % 1027 hPa 0,0 l/m W-SW 7,7 km/h (2 Bft)
28.10.2006 21:00 14,7 C 68 % 1027 hPa 0,0 l/m W-SW 8,1 km/h (2 Bft)
28.10.2006 22:00 14,6 C 66 % 1026 hPa 0,0 l/m W-SW 6,4 km/h (2 Bft)
28.10.2006 23:00 13,9 C 73 % 1026 hPa 0,0 l/m S-SW 6,7 km/h (2 Bft)
29.10.2006 00:00 13,7 C 74 % 1026 hPa 0,0 l/m S-SW 4,4 km/h (1 Bft)
29.10.2006 01:00 13,2 C 78 % 1025 hPa 0,0 l/m W-SW 4,5 km/h (1 Bft)
29.10.2006 02:00 13,0 C 82 % 1025 hPa 0,0 l/m S 4,8 km/h (1 Bft)
29.10.2006 03:00 13,4 C 77 % 1023 hPa 0,0 l/m S-SW 8,7 km/h (2 Bft)
29.10.2006 04:00 13,2 C 79 % 1023 hPa 0,0 l/m S-SW 11,2 km/h (2 Bft)
29.10.2006 05:00 12,7 C 85 % 1023 hPa 0,0 l/m S-SW 11,3 km/h (2 Bft)
29.10.2006 06:00 12,4 C 89 % 1022 hPa 2,0 l/m S-SW 11,3 km/h (2 Bft)
29.10.2006 07:00 12,0 C 97 % 1022 hPa 0,0 l/m SW 11,0 km/h (2 Bft)
29.10.2006 08:00 11,9 C 100 % 1023 hPa 5,0 l/m S-SW 10,5 km/h (2 Bft)
29.10.2006 09:00 12,1 C 100 % 1023 hPa 1,0 l/m SW 11,9 km/h (2 Bft)
29.10.2006 10:00 12,5 C 100 % 1022 hPa 0,0 l/m W-SW 11,3 km/h (2 Bft)
29.10.2006 11:00 12,9 C 97 % 1022 hPa 1,0 l/m S-SW 13,4 km/h (3 Bft)
29.10.2006 12:00 13,1 C 96 % 1022 hPa 0,0 l/m SW 9,0 km/h (2 Bft)
29.10.2006 13:00 13,0 C 99 % 1022 hPa 0,0 l/m W-SW 8,4 km/h (2 Bft)
29.10.2006 14:00 13,3 C 100 % 1022 hPa 0,0 l/m W-SW 9,6 km/h (2 Bft)
29.10.2006 15:00 13,4 C 99 % 1022 hPa 0,0 l/m W-SW 9,6 km/h (2 Bft)
29.10.2006 16:00 13,2 C 99 % 1022 hPa 0,0 l/m W-SW 8,3 km/h (2 Bft)
29.10.2006 17:00 12,7 C 100 % 1023 hPa 0,0 l/m W-SW 7,0 km/h (2 Bft)
29.10.2006 18:00 12,0 C 100 % 1023 hPa 0,0 l/m SW 1,5 km/h (1 Bft)
29.10.2006 19:00 11,6 C 100 % 1023 hPa 0,0 l/m W-SW 6,5 km/h (2 Bft)
29.10.2006 20:00 11,8 C 100 % 1024 hPa 0,0 l/m W-SW 4,9 km/h (1 Bft)
29.10.2006 21:00 11,7 C 99 % 1024 hPa 0,0 l/m W-SW 7,1 km/h (2 Bft)
29.10.2006 22:00 11,7 C 94 % 1024 hPa 0,0 l/m W 8,2 km/h (2 Bft)
29.10.2006 23:00 10,6 C 91 % 1024 hPa 0,0 l/m NW 7,2 km/h (2 Bft)
Min-Datum _ 25.10.06 24.10.06 23.10.06 - - 23.10.06
_ Min-Zeit 06:56 14:56 21:34 - - 00:00
Minimum _ 3,9 C 40 % 1003 hPa - - 0,0 km/h (0 Bft)
Max-Datum _ 26.10.06 23.10.06 28.10.06 29.10.06 - 24.10.06
_ Max-Zeit 15:25 01:38 02:04 08:36 - 14:48
Maximum _ 22,6 C 100 % 1029 hPa 5,0 l/m - 45,0 km/h
S (6 Bft)
Durchschnitt _ 12,4 C 86 % 1017 hPa #13,0 l/m W-SW 4,9 km/h (1 Bft)

Durchschnitt Minimum Temp.12,0 C
Durchschnitt Maximum Temp.12,8 C